Location: Morlupo
(42.1333°N, 12.5000°E)
Time: 16:16:58
(UTC+00:00)

CSL-04 Rocket - Pass Details

Date: 18 September 2020
Orbit: 806 x 860 km, 98.9° (Epoch: 25 October)

Event Time Altitude Azimuth Distance (km) Brightness Sun altitude
Rises 18:24:06 0° 173° (S) 3,346 6.6 -13.7°
Reaches altitude 10° 18:26:27 10° 177° (S) 2,425 5.9 -14.1°
Maximum altitude 18:31:47 63° 258° (WSW) 931 4.2 -15.1°
Drops below altitude 10° 18:37:14 10° 340° (NNW) 2,476 6.6 -16.1°
Sets 18:39:39 0° 343° (NNW) 3,423 7.4 -16.5°
